Total_Precipitation_Accumulation
0.02 0.02 0.03 0.04 0.06 0.08 0.09 0.10 0.10 0.11 0.11 0.12 0.13 0.14 0.15 0.15 0.15 0.16 0.17 0.19 0.22 0.26 0.30 0.35 0.40 0.43 0.47 0.49 0.53 0.57 0.63 0.71 0.70 0.51 0.42 0.41 0.39 0.34 0.31 0.28 0.24 0.23 0.21
0.02 0.02 0.03 0.03 0.04 0.05 0.07 0.08 0.08 0.08 0.09 0.09 0.10 0.10 0.10 0.10 0.11 0.12 0.14 0.17 0.21 0.25 0.28 0.33 0.38 0.42 0.45 0.47 0.49 0.51 0.51 0.53 0.60 0.54 0.39 0.36 0.32 0.31 0.32 0.31 0.26 0.23 0.19
0.03 0.04 0.04 0.04 0.05 0.05 0.05 0.06 0.05 0.06 0.06 0.06 0.07 0.08 0.09 0.09 0.10 0.11 0.12 0.15 0.18 0.20 0.23 0.26 0.31 0.34 0.36 0.35 0.35 0.36 0.38 0.42 0.48 0.51 0.40 0.34 0.30 0.28 0.29 0.27 0.24 0.21 0.19
0.06 0.06 0.05 0.05 0.06 0.06 0.05 0.05 0.05 0.04 0.05 0.05 0.05 0.06 0.07 0.09 0.11 0.13 0.16 0.19 0.20 0.21 0.22 0.24 0.25 0.25 0.25 0.24 0.25 0.27 0.33 0.38 0.41 0.46 0.43 0.35 0.31 0.27 0.27 0.23 0.20 0.18 0.19
0.10 0.10 0.08 0.07 0.07 0.07 0.07 0.06 0.05 0.05 0.06 0.07 0.08 0.09 0.10 0.11 0.14 0.16 0.18 0.20 0.21 0.22 0.21 0.20 0.19 0.19 0.19 0.19 0.22 0.27 0.33 0.40 0.48 0.54 0.51 0.44 0.36 0.30 0.25 0.25 0.30 0.29 0.27
0.12 0.11 0.11 0.09 0.09 0.09 0.09 0.09 0.08 0.08 0.09 0.11 0.13 0.16 0.18 0.19 0.25 0.23 0.19 0.21 0.22 0.21 0.20 0.19 0.18 0.18 0.16 0.17 0.20 0.28 0.41 0.54 0.64 0.68 0.65 0.55 0.41 0.34 0.34 0.39 0.47 0.56 0.49
0.13 0.13 0.12 0.11 0.12 0.13 0.12 0.13 0.15 0.18 0.20 0.20 0.20 0.22 0.25 0.29 0.31 0.24 0.20 0.17 0.17 0.16 0.15 0.14 0.13 0.12 0.12 0.11 0.14 0.25 0.34 0.44 0.51 0.54 0.53 0.41 0.37 0.36 0.48 0.64 0.67 0.72 0.58
0.12 0.13 0.13 0.14 0.16 0.18 0.20 0.22 0.23 0.25 0.27 0.28 0.28 0.25 0.24 0.25 0.24 0.18 0.15 0.14 0.14 0.13 0.11 0.10 0.10 0.09 0.09 0.13 0.20 0.28 0.23 0.19 0.24 0.29 0.33 0.34 0.37 0.44 0.61 0.85 0.92 0.90 0.71
0.17 0.21 0.21 0.23 0.24 0.26 0.29 0.31 0.32 0.33 0.33 0.30 0.27 0.26 0.25 0.23 0.19 0.14 0.12 0.10 0.10 0.08 0.07 0.07 0.08 0.07 0.09 0.21 0.33 0.35 0.24 0.14 0.16 0.24 0.33 0.36 0.37 0.40 0.48 0.74 0.93 1.00 0.84
0.22 0.28 0.28 0.29 0.33 0.34 0.34 0.33 0.30 0.30 0.30 0.28 0.25 0.21 0.18 0.17 0.15 0.12 0.09 0.08 0.08 0.07 0.06 0.06 0.06 0.08 0.15 0.27 0.32 0.33 0.27 0.18 0.22 0.25 0.26 0.27 0.26 0.30 0.39 0.58 1.01 1.40 1.19
0.25 0.27 0.26 0.25 0.27 0.27 0.27 0.26 0.25 0.23 0.22 0.20 0.18 0.16 0.13 0.10 0.08 0.06 0.06 0.08 0.09 0.11 0.09 0.06 0.05 0.13 0.22 0.26 0.24 0.20 0.25 0.33 0.29 0.26 0.28 0.30 0.31 0.33 0.37 0.48 0.79 1.43 1.68
0.20 0.21 0.21 0.21 0.21 0.19 0.19 0.19 0.18 0.17 0.15 0.13 0.11 0.09 0.07 0.05 0.03 0.02 0.04 0.07 0.12 0.12 0.08 0.06 0.07 0.15 0.16 0.13 0.11 0.16 0.28 0.30 0.23 0.31 0.37 0.38 0.38 0.41 0.46 0.54 0.63 0.81 1.09
0.18 0.18 0.17 0.15 0.14 0.13 0.12 0.11 0.10 0.08 0.07 0.06 0.05 0.04 0.03 0.02 0.02 0.02 0.03 0.08 0.11 0.09 0.08 0.10 0.12 0.10 0.07 0.06 0.09 0.15 0.16 0.15 0.26 0.46 0.53 0.53 0.55 0.61 0.66 0.68 0.65 0.65 0.68
0.13 0.13 0.12 0.10 0.08 0.07 0.06 0.05 0.04 0.04 0.03 0.02 0.02 0.01 0.01 0.01 0.01 0.01 0.04 0.06 0.07 0.08 0.09 0.09 0.06 0.04 0.04 0.06 0.10 0.10 0.09 0.16 0.38 0.57 0.62 0.60 0.62 0.67 0.74 0.82 0.89 0.84 0.82
0.07 0.06 0.06 0.05 0.04 0.04 0.03 0.02 0.02 0.01 0.01 0.01 0.01 0.01 0.02 0.02 0.02 0.08 0.11 0.09 0.11 0.12 0.11 0.04 0.02 0.03 0.04 0.06 0.09 0.10 0.11 0.19 0.31 0.42 0.56 0.61 0.61 0.66 0.75 0.85 0.95 0.94 0.87
0.03 0.03 0.03 0.02 0.02 0.02 0.01 0.01 0.01 0.01 0.01 0.00 0.00 0.01 0.02 0.03 0.06 0.08 0.10 0.12 0.12 0.11 0.09 0.04 0.05 0.07 0.10 0.13 0.15 0.15 0.16 0.23 0.38 0.53 0.63 0.72 0.80 0.87 0.92 0.92 0.91 0.87 0.76
0.02 0.02 0.01 0.01 0.01 0.01 0.01 0.01 0.01 0.00 0.00 0.00 0.00 0.01 0.02 0.03 0.05 0.06 0.09 0.10 0.06 0.07 0.08 0.09 0.13 0.16 0.19 0.21 0.23 0.27 0.31 0.36 0.55 0.72 0.83 0.89 0.98 1.02 1.00 0.92 0.79 0.66 0.51
0.02 0.02 0.01 0.01 0.01 0.01 0.01 0.01 0.01 0.01 0.00 0.00 0.00 0.00 0.01 0.02 0.03 0.05 0.08 0.05 0.02 0.05 0.12 0.18 0.23 0.26 0.26 0.28 0.32 0.41 0.49 0.54 0.66 0.80 0.90 0.98 1.11 1.15 1.01 0.80 0.62 0.49 0.38
0.02 0.02 0.01 0.01 0.01 0.01 0.01 0.01 0.01 0.01 0.01 0.01 0.00 0.00 0.00 0.01 0.03 0.03 0.03 0.02 0.04 0.07 0.13 0.20 0.25 0.27 0.30 0.33 0.39 0.49 0.64 0.77 0.85 0.97 1.02 1.10 1.15 1.09 0.84 0.57 0.38 0.24 0.22
0.03 0.03 0.03 0.02 0.02 0.02 0.01 0.01 0.01 0.02 0.02 0.02 0.01 0.01 0.01 0.03 0.04 0.02 0.01 0.02 0.04 0.06 0.09 0.15 0.19 0.24 0.31 0.39 0.48 0.60 0.77 0.86 0.94 1.02 1.09 1.11 0.99 0.83 0.63 0.39 0.27 0.25 0.22
0.04 0.04 0.05 0.04 0.03 0.02 0.02 0.02 0.03 0.04 0.04 0.03 0.02 0.02 0.05 0.07 0.05 0.02 0.03 0.03 0.04 0.06 0.09 0.14 0.18 0.24 0.34 0.46 0.58 0.66 0.78 0.89 1.01 1.11 1.08 0.92 0.73 0.53 0.34 0.29 0.27 0.26 0.26
0.06 0.06 0.06 0.05 0.04 0.04 0.04 0.05 0.05 0.05 0.04 0.03 0.02 0.02 0.04 0.03 0.02 0.03 0.03 0.03 0.03 0.04 0.06 0.12 0.16 0.23 0.44 0.71 0.92 0.98 0.90 0.89 0.93 0.98 0.89 0.68 0.49 0.36 0.30 0.29 0.27 0.27 0.27
0.07 0.07 0.07 0.07 0.07 0.07 0.08 0.06 0.06 0.06 0.05 0.05 0.04 0.04 0.03 0.03 0.03 0.03 0.03 0.03 0.03 0.03 0.04 0.09 0.16 0.21 0.37 0.69 1.01 1.31 1.39 1.22 1.08 1.03 0.97 0.75 0.50 0.40 0.39 0.37 0.32 0.29 0.24
0.08 0.09 0.09 0.10 0.10 0.09 0.09 0.07 0.07 0.07 0.07 0.06 0.06 0.05 0.05 0.04 0.04 0.03 0.03 0.02 0.03 0.03 0.04 0.09 0.17 0.25 0.39 0.70 0.97 1.15 1.29 1.37 1.38 1.26 1.10 0.94 0.67 0.48 0.41 0.36 0.29 0.25 0.23
0.10 0.11 0.11 0.11 0.10 0.10 0.10 0.09 0.09 0.08 0.08 0.08 0.07 0.07 0.06 0.05 0.04 0.03 0.03 0.03 0.04 0.04 0.03 0.08 0.17 0.31 0.48 0.70 0.92 1.09 1.14 1.13 1.02 0.90 0.77 0.63 0.51 0.39 0.36 0.34 0.27 0.23 0.20
0.11 0.12 0.11 0.11 0.10 0.10 0.09 0.09 0.09 0.09 0.09 0.09 0.08 0.08 0.07 0.06 0.05 0.05 0.05 0.05 0.05 0.05 0.04 0.07 0.14 0.31 0.51 0.69 0.84 1.01 1.03 0.86 0.58 0.42 0.40 0.44 0.41 0.33 0.31 0.31 0.27 0.23 0.21